PGT8JK LTFJ-EPLB

Flight info

Callsign PGT8JK
Flight time 1h 57m
Altitude 38000
Route VADEN DCT ARGES DCT ABTER DCT ROMOL/K0833F380 Q97 DIBED/N0449F380 M977 OSMAT L621 OGVET
Aircraft A320/M-SDE3FGHIRWY/LB1

Departure

Time 2026-04-24 06:30
Airport Istanbul Sabiha Gökçen International Airport (LTFJ)

Arrival

Time 2026-04-24 08:28
Airport Lublin Airport (EPLB)
Time Latitude Longitude Altitude Speed Heading
2026-04-24 06:16 40.90748 29.31939 311 ft 0 kts 334°
2026-04-24 06:25 40.90738 29.31945 309 ft 4 kts 334°
2026-04-24 06:25 40.90714 29.31961 311 ft 4 kts 338°
2026-04-24 06:25 40.90688 29.31971 310 ft 4 kts 350°
2026-04-24 06:25 40.90662 29.31973 309 ft 4 kts 13°
2026-04-24 06:26 40.90642 29.31959 308 ft 2 kts 62°
2026-04-24 06:26 40.90641 29.31957 308 ft 0 kts 64°
2026-04-24 06:27 40.90655 29.31996 310 ft 12 kts 64°
2026-04-24 06:28 40.90688 29.32084 311 ft 10 kts 64°
2026-04-24 06:28 40.90718 29.32163 311 ft 9 kts 64°
2026-04-24 06:28 40.90740 29.32235 311 ft 8 kts 91°
2026-04-24 06:28 40.90673 29.32306 311 ft 13 kts 155°
2026-04-24 06:29 40.90608 29.32368 311 ft 9 kts 118°
2026-04-24 06:29 40.90573 29.32426 311 ft 10 kts 144°
2026-04-24 06:29 40.90485 29.32482 312 ft 14 kts 155°
2026-04-24 06:29 40.90415 29.32443 313 ft 13 kts 243°
2026-04-24 06:30 40.90362 29.32301 313 ft 34 kts 244°
2026-04-24 06:30 40.90142 29.31706 313 ft 106 kts 244°
2026-04-24 06:30 40.89733 29.30607 354 ft 155 kts 243°
2026-04-24 06:30 40.89265 29.29342 1054 ft 152 kts 243°
2026-04-24 06:31 40.88809 29.28078 1817 ft 153 kts 244°
2026-04-24 06:31 40.88349 29.26794 2380 ft 164 kts 245°
2026-04-24 06:31 40.87827 29.25333 2729 ft 189 kts 245°
2026-04-24 06:31 40.87247 29.23652 3168 ft 213 kts 252°
2026-04-24 06:32 40.87155 29.21619 3616 ft 238 kts 285°
2026-04-24 06:32 40.88018 29.19685 4294 ft 252 kts 308°
2026-04-24 06:32 40.89143 29.17867 5212 ft 258 kts 309°
2026-04-24 06:32 40.90295 29.16024 6178 ft 262 kts 309°
2026-04-24 06:33 40.91464 29.14151 7089 ft 266 kts 310°
2026-04-24 06:33 40.92649 29.12245 8018 ft 269 kts 310°
2026-04-24 06:33 40.93844 29.10318 8930 ft 273 kts 311°
2026-04-24 06:33 40.95057 29.08361 9829 ft 277 kts 311°
2026-04-24 06:34 40.96297 29.06358 10415 ft 291 kts 311°
2026-04-24 06:34 40.97621 29.04213 10881 ft 306 kts 310°
2026-04-24 06:34 40.98970 29.02018 11742 ft 309 kts 310°
2026-04-24 06:34 41.00331 28.99798 12557 ft 313 kts 310°
2026-04-24 06:35 41.01711 28.97540 13354 ft 317 kts 310°
2026-04-24 06:35 41.03105 28.95259 14110 ft 320 kts 310°
2026-04-24 06:35 41.04511 28.92955 14809 ft 323 kts 310°
2026-04-24 06:35 41.05932 28.90629 15529 ft 326 kts 310°
2026-04-24 06:36 41.07345 28.88318 16210 ft 329 kts 310°
2026-04-24 06:36 41.08790 28.85954 16896 ft 331 kts 310°
2026-04-24 06:36 41.10250 28.83566 17573 ft 334 kts 310°
2026-04-24 06:36 41.11718 28.81165 18239 ft 337 kts 310°
2026-04-24 06:37 41.13207 28.78729 18806 ft 340 kts 310°
2026-04-24 06:37 41.14707 28.76275 19379 ft 344 kts 310°
2026-04-24 06:37 41.16218 28.73797 19939 ft 347 kts 310°
2026-04-24 06:37 41.17744 28.71286 20491 ft 351 kts 310°
2026-04-24 06:38 41.19285 28.68746 21040 ft 355 kts 310°
2026-04-24 06:38 41.20836 28.66190 21579 ft 358 kts 310°
2026-04-24 06:38 41.22407 28.63600 22128 ft 361 kts 310°
2026-04-24 06:38 41.23993 28.60986 22641 ft 365 kts 310°
2026-04-24 06:39 41.25571 28.58381 23177 ft 368 kts 309°
2026-04-24 06:39 41.27185 28.55717 23673 ft 371 kts 309°
2026-04-24 06:39 41.28810 28.53036 24119 ft 374 kts 309°
2026-04-24 06:39 41.30445 28.50335 24569 ft 376 kts 309°
2026-04-24 06:40 41.32088 28.47614 25021 ft 378 kts 309°
2026-04-24 06:40 41.33741 28.44871 25505 ft 380 kts 309°
2026-04-24 06:40 41.34838 28.43048 25797 ft 381 kts 309°
2026-04-24 06:40 41.36504 28.40276 26224 ft 384 kts 309°
2026-04-24 06:41 41.38178 28.37494 26624 ft 387 kts 310°
2026-04-24 06:41 41.39864 28.34692 27027 ft 389 kts 310°
2026-04-24 06:41 41.41561 28.31872 27443 ft 391 kts 310°
2026-04-24 06:41 41.43270 28.29029 27849 ft 394 kts 310°
2026-04-24 06:42 41.44984 28.26173 28260 ft 396 kts 310°
2026-04-24 06:42 41.46707 28.23291 28571 ft 401 kts 310°
2026-04-24 06:42 41.48460 28.20350 28698 ft 409 kts 310°
2026-04-24 06:42 41.50250 28.17354 28843 ft 417 kts 310°
2026-04-24 06:43 41.52080 28.14301 28972 ft 424 kts 310°
2026-04-24 06:43 41.53936 28.11201 29109 ft 431 kts 310°
2026-04-24 06:43 41.55815 28.08058 29352 ft 435 kts 310°
2026-04-24 06:43 41.57685 28.04921 29653 ft 437 kts 310°
2026-04-24 06:44 41.59575 28.01736 29959 ft 439 kts 310°
2026-04-24 06:44 41.61482 27.98517 30229 ft 441 kts 310°
2026-04-24 06:44 41.63388 27.95295 30518 ft 442 kts 309°
2026-04-24 06:44 41.65293 27.92076 30901 ft 441 kts 309°
2026-04-24 06:45 41.67194 27.88867 31300 ft 439 kts 309°
2026-04-24 06:45 41.69089 27.85671 31696 ft 438 kts 309°
2026-04-24 06:45 41.70980 27.82477 32078 ft 437 kts 309°
2026-04-24 06:45 41.72860 27.79290 32446 ft 436 kts 309°
2026-04-24 06:46 41.74737 27.76103 32818 ft 435 kts 309°
2026-04-24 06:46 41.76607 27.72926 33185 ft 434 kts 309°
2026-04-24 06:46 41.78470 27.69759 33543 ft 433 kts 309°
2026-04-24 06:46 41.80335 27.66586 33912 ft 432 kts 309°
2026-04-24 06:47 41.82193 27.63421 34228 ft 432 kts 309°
2026-04-24 06:47 41.84050 27.60252 34528 ft 432 kts 309°
2026-04-24 06:47 41.85903 27.57090 34814 ft 431 kts 309°
2026-04-24 06:47 41.87756 27.53927 35083 ft 431 kts 309°
2026-04-24 06:48 41.89607 27.50765 35351 ft 431 kts 309°
2026-04-24 06:48 41.91458 27.47601 35604 ft 431 kts 309°
2026-04-24 06:48 41.93309 27.44428 35847 ft 431 kts 309°
2026-04-24 06:48 41.95154 27.41259 36111 ft 431 kts 309°
2026-04-24 06:49 41.96997 27.38091 36367 ft 430 kts 309°
2026-04-24 06:49 41.98838 27.34924 36606 ft 430 kts 309°
2026-04-24 06:49 42.00680 27.31752 36867 ft 430 kts 309°
2026-04-24 06:49 42.02520 27.28595 37151 ft 428 kts 311°
2026-04-24 06:50 42.04584 27.25730 37381 ft 425 kts 321°
2026-04-24 06:50 42.06976 27.23400 37607 ft 424 kts 330°
2026-04-24 06:50 42.09617 27.21658 37815 ft 423 kts 339°
2026-04-24 06:50 42.12407 27.20551 37969 ft 425 kts 348°
2026-04-24 06:51 42.15375 27.19951 38004 ft 427 kts 351°
2026-04-24 06:51 42.21226 27.18872 38005 ft 427 kts 351°
2026-04-24 06:52 42.27117 27.17773 37995 ft 428 kts 351°
2026-04-24 06:52 42.33021 27.16658 38007 ft 428 kts 351°
2026-04-24 06:53 42.38923 27.15540 38006 ft 429 kts 351°
2026-04-24 06:53 42.44835 27.14415 38004 ft 429 kts 351°
2026-04-24 06:54 42.50752 27.13291 38009 ft 429 kts 351°
2026-04-24 06:54 42.56675 27.12171 38008 ft 429 kts 351°
2026-04-24 06:55 42.62595 27.11046 38004 ft 429 kts 351°
2026-04-24 06:55 42.68479 27.09920 38015 ft 429 kts 351°
2026-04-24 06:56 42.74399 27.08794 38009 ft 429 kts 351°
2026-04-24 06:56 42.80332 27.07667 37965 ft 432 kts 351°
2026-04-24 06:57 42.86311 27.06528 37981 ft 435 kts 351°
2026-04-24 06:57 42.92319 27.05372 37979 ft 436 kts 351°
2026-04-24 06:58 42.98341 27.04209 37984 ft 437 kts 351°
2026-04-24 06:58 43.04376 27.03051 37979 ft 438 kts 351°
2026-04-24 06:59 43.10373 27.01896 38011 ft 438 kts 351°
2026-04-24 06:59 43.16400 27.00723 38013 ft 437 kts 351°
2026-04-24 07:00 43.22426 26.99548 38007 ft 437 kts 351°
2026-04-24 07:00 43.28445 26.98380 38024 ft 437 kts 351°
2026-04-24 07:01 43.34454 26.97207 38017 ft 436 kts 351°
2026-04-24 07:01 43.40455 26.96036 38019 ft 435 kts 352°
2026-04-24 07:02 43.46443 26.94872 38008 ft 434 kts 352°
2026-04-24 07:02 43.52420 26.93708 38006 ft 433 kts 352°
2026-04-24 07:03 43.58355 26.92545 38001 ft 433 kts 351°
2026-04-24 07:03 43.64319 26.91372 38001 ft 433 kts 351°
2026-04-24 07:04 43.70280 26.90196 38014 ft 432 kts 352°
2026-04-24 07:04 43.76240 26.89028 38010 ft 431 kts 352°
2026-04-24 07:05 43.82156 26.87855 38016 ft 429 kts 352°
2026-04-24 07:05 43.88051 26.86686 37996 ft 427 kts 352°
2026-04-24 07:06 43.93937 26.85517 38005 ft 427 kts 352°
2026-04-24 07:06 43.99778 26.84356 38000 ft 426 kts 352°
2026-04-24 07:07 44.05642 26.83180 37982 ft 425 kts 352°
2026-04-24 07:07 44.14225 26.80067 37976 ft 426 kts 343°
2026-04-24 07:08 44.19896 26.77584 37958 ft 428 kts 343°
2026-04-24 07:08 44.25584 26.75082 37958 ft 429 kts 343°
2026-04-24 07:09 44.31292 26.72570 37959 ft 430 kts 343°
2026-04-24 07:09 44.37004 26.70053 37975 ft 431 kts 343°
2026-04-24 07:10 44.42695 26.67547 37972 ft 431 kts 343°
2026-04-24 07:10 44.48424 26.65014 37989 ft 430 kts 343°
2026-04-24 07:11 44.54114 26.62498 37985 ft 427 kts 343°
2026-04-24 07:11 44.59773 26.59993 37984 ft 425 kts 343°
2026-04-24 07:12 44.65407 26.57483 37977 ft 424 kts 343°
2026-04-24 07:12 44.71022 26.54982 37974 ft 422 kts 343°
2026-04-24 07:13 44.76584 26.52495 37973 ft 422 kts 343°
2026-04-24 07:13 44.82171 26.49999 37967 ft 421 kts 343°
2026-04-24 07:14 44.87754 26.47499 37982 ft 420 kts 343°
2026-04-24 07:14 44.93317 26.44993 37955 ft 419 kts 344°
2026-04-24 07:15 44.98870 26.42493 37958 ft 418 kts 344°
2026-04-24 07:15 45.04409 26.40000 37962 ft 418 kts 344°
2026-04-24 07:16 45.09942 26.37509 37981 ft 417 kts 344°
2026-04-24 07:16 45.15452 26.35002 37973 ft 415 kts 344°
2026-04-24 07:17 45.20948 26.32495 37962 ft 414 kts 344°
2026-04-24 07:17 45.26402 26.30021 37958 ft 414 kts 344°
2026-04-24 07:18 45.31879 26.27530 37963 ft 413 kts 344°
2026-04-24 07:18 45.37302 26.25056 37967 ft 406 kts 344°
2026-04-24 07:19 45.42662 26.22606 37966 ft 404 kts 344°
2026-04-24 07:19 45.48007 26.20151 37973 ft 403 kts 344°
2026-04-24 07:20 45.53346 26.17705 37939 ft 403 kts 345°
2026-04-24 07:20 45.58683 26.15259 37974 ft 402 kts 344°
2026-04-24 07:21 45.64012 26.12798 37973 ft 402 kts 344°
2026-04-24 07:21 45.69339 26.10331 37972 ft 403 kts 344°
2026-04-24 07:22 45.74674 26.07862 37969 ft 403 kts 344°
2026-04-24 07:22 45.80010 26.05384 37973 ft 403 kts 344°
2026-04-24 07:23 45.85314 26.02917 37951 ft 403 kts 345°
2026-04-24 07:23 45.90651 26.00438 37955 ft 403 kts 345°
2026-04-24 07:24 45.95992 25.97946 37965 ft 404 kts 345°
2026-04-24 07:24 46.01331 25.95446 37969 ft 404 kts 344°
2026-04-24 07:25 46.06674 25.92939 37994 ft 404 kts 344°
2026-04-24 07:25 46.12009 25.90430 37991 ft 403 kts 345°
2026-04-24 07:26 46.17331 25.87926 37985 ft 402 kts 345°
2026-04-24 07:26 46.22613 25.85446 37985 ft 401 kts 345°
2026-04-24 07:27 46.27907 25.82900 37982 ft 401 kts 343°
2026-04-24 07:27 46.33158 25.80157 37993 ft 401 kts 342°
2026-04-24 07:28 46.38384 25.77365 37984 ft 399 kts 343°
2026-04-24 07:28 46.43605 25.74607 37962 ft 398 kts 343°
2026-04-24 07:29 46.48813 25.71880 37966 ft 398 kts 343°
2026-04-24 07:29 46.54018 25.69157 37975 ft 397 kts 343°
2026-04-24 07:30 46.59176 25.66449 37987 ft 397 kts 343°
2026-04-24 07:30 46.64357 25.63710 37984 ft 395 kts 343°
2026-04-24 07:31 46.69525 25.60982 37982 ft 394 kts 343°
2026-04-24 07:31 46.74678 25.58253 37948 ft 394 kts 343°
2026-04-24 07:32 46.79831 25.55508 37960 ft 394 kts 343°
2026-04-24 07:32 46.84103 25.53229 37986 ft 393 kts 343°
2026-04-24 07:33 46.89241 25.50496 37982 ft 392 kts 343°
2026-04-24 07:33 46.94361 25.47768 37975 ft 391 kts 343°
2026-04-24 07:34 46.99473 25.45028 37968 ft 391 kts 343°
2026-04-24 07:34 47.04585 25.42287 37941 ft 391 kts 343°
2026-04-24 07:35 47.09702 25.39543 37976 ft 392 kts 343°
2026-04-24 07:35 47.14818 25.36790 37969 ft 391 kts 343°
2026-04-24 07:36 47.19925 25.34040 37971 ft 391 kts 343°
2026-04-24 07:36 47.25021 25.31285 37962 ft 390 kts 343°
2026-04-24 07:37 47.30116 25.28526 37960 ft 390 kts 343°
2026-04-24 07:37 47.35202 25.25761 37974 ft 390 kts 343°
2026-04-24 07:38 47.40284 25.22989 37977 ft 389 kts 343°
2026-04-24 07:38 47.45357 25.20223 37974 ft 389 kts 343°
2026-04-24 07:39 47.50432 25.17452 37969 ft 389 kts 343°
2026-04-24 07:39 47.55471 25.14697 37975 ft 388 kts 343°
2026-04-24 07:40 47.60567 25.11900 38000 ft 388 kts 342°
2026-04-24 07:40 47.65603 25.09131 37962 ft 388 kts 342°
2026-04-24 07:41 47.70655 25.06353 37968 ft 387 kts 342°
2026-04-24 07:41 47.75556 25.02993 37969 ft 391 kts 333°
2026-04-24 07:42 47.80245 24.98855 37974 ft 391 kts 334°
2026-04-24 07:42 47.84934 24.94733 37981 ft 392 kts 334°
2026-04-24 07:43 47.89620 24.90597 38001 ft 392 kts 334°
2026-04-24 07:43 47.94302 24.86450 37973 ft 391 kts 334°
2026-04-24 07:44 47.98977 24.82306 37983 ft 391 kts 334°
2026-04-24 07:44 48.03649 24.78148 37986 ft 391 kts 333°
2026-04-24 07:45 48.08291 24.74007 37996 ft 391 kts 334°
2026-04-24 07:45 48.12960 24.69836 37993 ft 391 kts 333°
2026-04-24 07:46 48.17628 24.65656 37997 ft 391 kts 333°
2026-04-24 07:46 48.22288 24.61473 38006 ft 390 kts 334°
2026-04-24 07:47 48.26936 24.57286 38003 ft 389 kts 333°
2026-04-24 07:47 48.31569 24.53109 38011 ft 388 kts 334°
2026-04-24 07:48 48.36204 24.48933 38010 ft 388 kts 333°
2026-04-24 07:48 48.40831 24.44753 38010 ft 388 kts 333°
2026-04-24 07:49 48.45452 24.40563 37985 ft 387 kts 334°
2026-04-24 07:49 48.50072 24.36363 37994 ft 388 kts 334°
2026-04-24 07:50 48.54664 24.32174 37999 ft 388 kts 333°
2026-04-24 07:50 48.59278 24.27961 38005 ft 387 kts 334°
2026-04-24 07:51 48.63897 24.23734 38011 ft 388 kts 334°
2026-04-24 07:51 48.68516 24.19500 38017 ft 388 kts 333°
2026-04-24 07:52 48.73137 24.15259 37985 ft 388 kts 334°
2026-04-24 07:52 48.77759 24.11014 38015 ft 389 kts 333°
2026-04-24 07:53 48.82384 24.06748 38021 ft 389 kts 333°
2026-04-24 07:53 48.86998 24.02470 38024 ft 389 kts 333°
2026-04-24 07:54 48.91612 23.98192 38036 ft 389 kts 333°
2026-04-24 07:54 48.96228 23.93909 38005 ft 388 kts 333°
2026-04-24 07:55 49.00811 23.89644 38012 ft 389 kts 333°
2026-04-24 07:55 49.05415 23.85334 38026 ft 389 kts 333°
2026-04-24 07:56 49.10031 23.81011 38035 ft 389 kts 333°
2026-04-24 07:56 49.14648 23.76694 38037 ft 389 kts 333°
2026-04-24 07:57 49.19262 23.72376 38049 ft 389 kts 333°
2026-04-24 07:57 49.23877 23.68039 38008 ft 389 kts 333°
2026-04-24 07:58 49.28490 23.63681 38015 ft 390 kts 333°
2026-04-24 07:58 49.33111 23.59313 38033 ft 390 kts 333°
2026-04-24 07:59 49.37732 23.54929 38049 ft 391 kts 333°
2026-04-24 07:59 49.42359 23.50536 38048 ft 391 kts 333°
2026-04-24 08:00 49.46955 23.46158 38051 ft 391 kts 333°
2026-04-24 08:00 49.51583 23.41744 38022 ft 391 kts 333°
2026-04-24 08:01 49.56217 23.37324 38034 ft 392 kts 333°
2026-04-24 08:01 49.60851 23.32879 38038 ft 392 kts 333°
2026-04-24 08:02 49.65488 23.28423 38048 ft 392 kts 333°
2026-04-24 08:02 49.70119 23.23966 38075 ft 393 kts 332°
2026-04-24 08:03 49.74750 23.19486 38064 ft 392 kts 332°
2026-04-24 08:03 49.79378 23.15001 38043 ft 392 kts 332°
2026-04-24 08:04 49.84008 23.10515 38048 ft 392 kts 332°
2026-04-24 08:04 49.88821 23.06700 38050 ft 386 kts 346°
2026-04-24 08:05 49.91436 23.05818 37797 ft 385 kts 354°
2026-04-24 08:05 49.94126 23.05590 36878 ft 389 kts 359°
2026-04-24 08:05 49.96824 23.05513 36224 ft 387 kts 359°
2026-04-24 08:05 49.99482 23.05436 35499 ft 388 kts 359°
2026-04-24 08:06 50.02180 23.05352 34764 ft 388 kts 359°
2026-04-24 08:06 50.04883 23.05263 34052 ft 388 kts 359°
2026-04-24 08:06 50.07586 23.05169 33126 ft 390 kts 359°
2026-04-24 08:06 50.10306 23.05071 32237 ft 391 kts 359°
2026-04-24 08:07 50.13029 23.04975 31348 ft 392 kts 359°
2026-04-24 08:07 50.15749 23.04876 30864 ft 385 kts 359°
2026-04-24 08:07 50.18372 23.04779 30737 ft 369 kts 359°
2026-04-24 08:07 50.20886 23.04687 30637 ft 354 kts 359°
2026-04-24 08:08 50.23294 23.04411 30473 ft 341 kts 351°
2026-04-24 08:08 50.25539 23.03404 29778 ft 334 kts 340°
2026-04-24 08:08 50.27592 23.01730 28866 ft 331 kts 335°
2026-04-24 08:09 50.31550 22.98268 27133 ft 321 kts 335°
2026-04-24 08:09 50.33492 22.96574 26320 ft 319 kts 336°
2026-04-24 08:09 50.35422 22.94897 25918 ft 314 kts 336°
2026-04-24 08:09 50.37329 22.93242 25430 ft 313 kts 336°
2026-04-24 08:10 50.39227 22.91593 24953 ft 311 kts 336°
2026-04-24 08:10 50.41114 22.89952 24504 ft 309 kts 336°
2026-04-24 08:10 50.42957 22.88348 23996 ft 304 kts 336°
2026-04-24 08:10 50.44795 22.86745 23195 ft 300 kts 336°
2026-04-24 08:11 50.46616 22.85158 22670 ft 298 kts 336°
2026-04-24 08:11 50.48425 22.83582 22229 ft 296 kts 335°
2026-04-24 08:11 50.50214 22.82020 21801 ft 293 kts 335°
2026-04-24 08:11 50.51986 22.80470 21408 ft 290 kts 335°
2026-04-24 08:12 50.53742 22.78934 20998 ft 287 kts 335°
2026-04-24 08:12 50.55481 22.77415 20586 ft 285 kts 335°
2026-04-24 08:12 50.57212 22.75897 20174 ft 284 kts 335°
2026-04-24 08:12 50.58933 22.74387 19756 ft 283 kts 335°
2026-04-24 08:13 50.60651 22.72878 19333 ft 283 kts 335°
2026-04-24 08:13 50.62372 22.71364 18902 ft 283 kts 334°
2026-04-24 08:13 50.64095 22.69843 18470 ft 284 kts 334°
2026-04-24 08:13 50.65792 22.68322 17996 ft 285 kts 334°
2026-04-24 08:14 50.67537 22.66748 17530 ft 285 kts 333°
2026-04-24 08:14 50.69259 22.65186 17082 ft 285 kts 333°
2026-04-24 08:14 50.70958 22.63646 16651 ft 285 kts 333°
2026-04-24 08:14 50.72672 22.62090 16235 ft 285 kts 333°
2026-04-24 08:15 50.74377 22.60539 15839 ft 284 kts 333°
2026-04-24 08:15 50.76085 22.58986 15552 ft 280 kts 333°
2026-04-24 08:15 50.77771 22.57454 15174 ft 280 kts 332°
2026-04-24 08:15 50.79458 22.55920 14789 ft 280 kts 332°
2026-04-24 08:16 50.81148 22.54383 14438 ft 279 kts 332°
2026-04-24 08:16 50.82826 22.52846 14108 ft 278 kts 332°
2026-04-24 08:16 50.84491 22.51315 13768 ft 276 kts 332°
2026-04-24 08:16 50.86149 22.49788 13365 ft 275 kts 332°
2026-04-24 08:17 50.87793 22.48283 12759 ft 271 kts 333°
2026-04-24 08:17 50.89536 22.47188 12109 ft 271 kts 343°
2026-04-24 08:17 50.91317 22.46341 11740 ft 270 kts 344°
2026-04-24 08:17 50.93168 22.46081 11369 ft 270 kts
2026-04-24 08:18 50.94886 22.47297 10999 ft 277 kts 36°
2026-04-24 08:18 50.96008 22.49818 10602 ft 290 kts 64°
2026-04-24 08:18 50.96611 22.52901 10159 ft 294 kts 68°
2026-04-24 08:18 50.97169 22.56014 9837 ft 292 kts 69°
2026-04-24 08:19 50.97713 22.59117 9421 ft 291 kts 69°
2026-04-24 08:19 50.98425 22.62074 9032 ft 283 kts 56°
2026-04-24 08:19 50.99543 22.64566 8691 ft 272 kts 41°
2026-04-24 08:19 51.00926 22.66541 8396 ft 266 kts 34°
2026-04-24 08:20 51.02337 22.68420 8112 ft 264 kts 35°
2026-04-24 08:20 51.03736 22.70291 7808 ft 262 kts 34°
2026-04-24 08:20 51.05105 22.72128 7526 ft 260 kts 35°
2026-04-24 08:20 51.06492 22.73994 7224 ft 260 kts 34°
2026-04-24 08:21 51.07867 22.75847 6937 ft 259 kts 34°
2026-04-24 08:21 51.09236 22.77692 6653 ft 257 kts 34°
2026-04-24 08:21 51.10598 22.79521 6364 ft 256 kts 34°
2026-04-24 08:21 51.11954 22.81341 6066 ft 254 kts 34°
2026-04-24 08:22 51.13273 22.83119 5919 ft 243 kts 34°
2026-04-24 08:22 51.14112 22.84253 5832 ft 235 kts 34°
2026-04-24 08:22 51.15743 22.86459 5488 ft 228 kts 34°
2026-04-24 08:22 51.16540 22.87539 5278 ft 227 kts 36°
2026-04-24 08:23 51.17577 22.89465 4895 ft 235 kts 50°
2026-04-24 08:23 51.18463 22.91640 4607 ft 232 kts 51°
2026-04-24 08:23 51.19344 22.93791 4246 ft 231 kts 49°
2026-04-24 08:23 51.20491 22.95493 3864 ft 223 kts 26°
2026-04-24 08:24 51.21956 22.96299 3365 ft 225 kts
2026-04-24 08:24 51.23489 22.96123 3067 ft 219 kts 345°
2026-04-24 08:24 51.24961 22.95590 2812 ft 215 kts 343°
2026-04-24 08:24 51.26219 22.94443 2559 ft 208 kts 311°
2026-04-24 08:25 51.26826 22.92425 2385 ft 197 kts 280°
2026-04-24 08:25 51.26716 22.90328 2318 ft 184 kts 260°
2026-04-24 08:25 51.26445 22.88438 2213 ft 166 kts 261°
2026-04-24 08:25 51.26200 22.86717 2109 ft 152 kts 262°
2026-04-24 08:26 51.25978 22.85153 2047 ft 139 kts 263°
2026-04-24 08:26 51.25769 22.83681 1946 ft 133 kts 263°
2026-04-24 08:26 51.25570 22.82267 1826 ft 132 kts 263°
2026-04-24 08:26 51.25368 22.80840 1662 ft 132 kts 263°
2026-04-24 08:27 51.25166 22.79415 1485 ft 130 kts 264°
2026-04-24 08:27 51.24967 22.78026 1306 ft 126 kts 264°
2026-04-24 08:27 51.24782 22.76663 1126 ft 126 kts 262°
2026-04-24 08:27 51.24579 22.75300 935 ft 126 kts 263°
2026-04-24 08:28 51.24384 22.73950 764 ft 125 kts 262°
2026-04-24 08:28 51.24193 22.72609 644 ft 119 kts 262°
2026-04-24 08:28 51.24063 22.71646 643 ft 47 kts 257°
2026-04-24 08:28 51.24018 22.71387 648 ft 16 kts 232°
2026-04-24 08:29 51.23946 22.71375 646 ft 11 kts 170°
2026-04-24 08:29 51.23887 22.71397 649 ft 6 kts 166°
2026-04-24 08:29 51.23861 22.71407 651 ft 2 kts 166°
2026-04-24 08:29 51.23800 22.71431 653 ft 11 kts 168°
2026-04-24 08:30 51.23745 22.71450 653 ft 0 kts 167°
2026-04-24 08:30 51.23744 22.71450 653 ft 1 kts 167°
2026-04-24 08:30 51.23687 22.71471 653 ft 8 kts 167°
2026-04-24 08:30 51.23656 22.71482 653 ft 2 kts 167°
2026-04-24 08:31 51.23650 22.71484 653 ft 0 kts 167°